{"data":{"norad_id":67623,"intl_designator":"2026-020G","name":"STARLINK-36600","alt_names":[],"object_type":"PAYLOAD","status":"ACTIVE","operator":null,"country":"US","launch_date":"2026-01-30","launch_site_code":"AFETR","launch_vehicle":null,"mission":null,"orbit_class":"UNKNOWN","rcs_meters":null,"size_class":null,"mass_kg":null,"dimensions":null,"purposes":["comms"],"wikipedia_slug":null,"has_3d_model":false,"image_url":null,"decayed_at":null,"tle_current":{"epoch":"2026-05-25T04:54:36.112032Z","epoch_age_seconds":54612,"freshness":"FRESH","line1":"1 67623U 26020G   26145.20458463  .00026827  00000+0  98029-3 0  9999","line2":"2 67623  43.0009  67.8389 0001035 268.1958  91.8775 15.27599005 17818","mean_motion":15.27599005,"eccentricity":0.0001035,"inclination_deg":43.0009,"raan_deg":67.8389,"arg_perigee_deg":268.1958,"mean_anomaly_deg":91.8775,"bstar":0.00098029,"rev_number":1781,"period_min":94.265575932344,"perigee_km":482.28206195159,"apogee_km":483.70231569368,"semimajor_km":6861.1291888226,"source":"CELESTRAK","updated_at":"2026-05-25T13:38:21.650335Z"}}}